Location: Harwich
(41.7160°N, 69.9939°W)
Time: 19:37:15
(UTC+01:00)

Explorer 11/Cluster Stage 4 - All Passes

Search period start: 30 January 2023 00:00
Search period end: 09 February 2023 00:00
Orbit: 466 x 1244 km, 28.8° (Epoch: 29 January)

Date Brightness Start Highest point End Pass type
(mag) Time Alt. Az. Time Alt. Az. Time Alt. Az.
30 Jan - 11:48:21 10° SSW 11:54:03 21° SSE 11:59:31 10° ESE visible
30 Jan - 13:35:36 10° SW 13:42:13 29° S 13:48:11 10° ESE daylight
30 Jan - 15:24:23 10° WSW 15:30:16 25° SSW 15:35:25 10° SE daylight
30 Jan - 17:15:13 10° SW 17:17:47 12° SSW 17:20:11 10° S daylight
31 Jan - 11:34:32 10° SSW 11:40:31 23° SSE 11:46:19 10° ESE visible
31 Jan - 13:21:57 10° SW 13:28:43 30° S 13:34:55 10° ESE daylight
31 Jan - 15:10:48 10° WSW 15:16:49 25° SSW 15:22:08 10° SE daylight
31 Jan - 17:01:57 10° SW 17:04:20 12° SSW 17:06:36 10° S daylight
01 Feb - 09:36:55 10° SSE 09:39:06 11° SSE 09:41:19 10° SE visible
01 Feb - 11:20:47 10° SSW 11:26:58 24° SSE 11:33:03 10° ESE visible
01 Feb - 13:08:18 10° WSW 13:15:13 31° S 13:21:37 10° ESE daylight
01 Feb - 14:57:15 10° WSW 15:03:19 25° SSW 15:08:47 10° SE daylight
01 Feb - 16:48:48 10° SW 16:50:52 11° SSW 16:52:52 10° SSW daylight
02 Feb - 09:22:30 10° S 09:25:31 13° SSE 09:28:37 10° SE visible
02 Feb - 11:07:06 10° SW 11:13:24 26° SSE 11:19:43 10° ESE visible
02 Feb - 12:54:43 10° WSW 13:01:40 32° S 13:08:15 10° ESE daylight
02 Feb - 14:43:42 10° WSW 14:49:48 25° SSW 14:55:23 10° SE daylight
02 Feb - 16:35:50 10° SW 16:37:22 11° SSW 16:38:52 10° SSW daylight
03 Feb - 09:08:25 10° S 09:11:57 14° SSE 09:15:36 10° SE visible
03 Feb - 10:53:28 10° SW 10:59:50 27° SSE 11:06:19 10° ESE visible
03 Feb - 12:41:08 10° WSW 12:48:06 32° S 12:54:50 10° ESE daylight
03 Feb - 14:30:10 10° WSW 14:36:16 24° SSW 14:41:54 10° SSE daylight
04 Feb - 08:54:30 10° S 08:58:22 15° SSE 09:02:25 10° ESE visible
04 Feb - 10:39:53 10° SW 10:46:15 28° SSE 10:52:52 10° ESE visible
04 Feb - 12:27:36 10° WSW 12:34:32 32° S 12:41:21 10° SE daylight
04 Feb - 14:16:41 10° WSW 14:22:42 23° SSW 14:28:21 10° SSE daylight
05 Feb - 08:40:43 10° S 08:44:47 16° SSE 08:49:08 10° ESE visible
05 Feb - 10:26:20 10° SW 10:32:40 28° SSE 10:39:21 10° ESE visible
05 Feb - 12:14:05 10° WSW 12:20:57 31° S 12:27:48 10° SE visible
05 Feb - 14:03:13 10° WSW 14:09:06 22° SSW 14:14:43 10° SSE daylight
06 Feb - 08:27:02 10° SSW 08:31:13 17° SSE 08:35:44 10° ESE visible
06 Feb - 10:12:50 10° SW 10:19:05 29° S 10:25:46 10° ESE visible
06 Feb - 12:00:37 10° WSW 12:07:21 31° S 12:14:12 10° SE visible
06 Feb - 13:49:49 10° WSW 13:55:30 21° SSW 14:01:01 10° SSE daylight
07 Feb - 08:13:26 10° SSW 08:17:39 17° SSE 08:22:16 10° ESE visible
07 Feb - 09:59:24 10° SW 10:05:30 29° S 10:12:10 10° ESE visible
07 Feb - 11:47:11 10° WSW 11:53:45 30° S 12:00:33 10° SE visible
07 Feb - 13:36:29 10° WSW 13:41:53 20° SSW 13:47:13 10° SSE daylight
08 Feb - 07:59:54 10° SSW 08:04:06 18° SSE 08:08:45 10° ESE visible
08 Feb - 09:45:59 10° SW 09:51:55 29° S 09:58:32 10° ESE visible
08 Feb - 11:33:47 10° WSW 11:40:09 29° S 11:46:51 10° SE visible
08 Feb - 13:23:12 10° WSW 13:28:14 18° SSW 13:33:18 10° SSE daylight
